| time (UTC) | temp F | wind direction | speed knots | gust knots | rain 1hr in | rain 24hr in | rain mn in | humidity % | barometer mb |
| 20260504185606 | 82 | 170 | 1.7 | 7.0 | 0.00 | 0.00 | 0.00 | 68 | 1013.7 |
| 20260504185100 | 81 | 188 | 1.7 | 8.7 | 0.00 | 0.00 | 0.00 | 70 | 1013.7 |
| 20260504184554 | 81 | 181 | 1.7 | 8.7 | 0.00 | 0.00 | 0.00 | 69 | 1013.8 |
| 20260504184048 | 81 | 189 | 1.7 | 7.0 | 0.00 | 0.00 | 0.00 | 70 | 1014.1 |
| 20260504183543 | 81 | 206 | 1.7 | 9.6 | 0.00 | 0.00 | 0.00 | 70 | 1014.0 |
| 20260504183036 | 81 | 180 | 1.7 | 9.6 | 0.00 | 0.00 | 0.00 | 69 | 1013.9 |
| 20260504182530 | 81 | 197 | 1.7 | 9.6 | 0.00 | 0.00 | 0.00 | 69 | 1014.1 |
| 20260504182024 | 81 | 209 | 2.6 | 11.3 | 0.00 | 0.00 | 0.00 | 69 | 1014.1 |
| 20260504181518 | 80 | 134 | 2.6 | 11.3 | 0.00 | 0.00 | 0.00 | 70 | 1014.1 |
| 20260504181012 | 80 | 216 | 1.7 | 9.6 | 0.00 | 0.00 | 0.00 | 71 | 1014.2 |
| 20260504180506 | 80 | 152 | 1.7 | 9.6 | 0.00 | 0.00 | 0.00 | 68 | 1014.2 |
| 20260504180000 | 80 | 174 | 2.6 | 7.8 | 0.00 | 0.00 | 0.00 | 70 | 1014.2 |
| 20260504175457 | 80 | 119 | 1.7 | 9.6 | 0.00 | 0.00 | 0.00 | 70 | 1014.2 |
| 20260504175450 | 80 | 210 | 1.7 | 9.6 | 0.00 | 0.00 | 0.00 | 70 | 1014.5 |
| 20260504174441 | 80 | 139 | 1.7 | 7.0 | 0.00 | 0.00 | 0.00 | 68 | 1014.6 |
| 20260504173936 | 80 | 138 | 1.7 | 8.7 | 0.00 | 0.00 | 0.00 | 71 | 1014.6 |
| 20260504173430 | 80 | 206 | 1.7 | 8.7 | 0.00 | 0.00 | 0.00 | 70 | 1014.7 |
| 20260504172924 | 79 | 157 | 1.7 | 8.7 | 0.00 | 0.00 | 0.00 | 72 | 1014.8 |
| 20260504172418 | 79 | 148 | 3.5 | 10.4 | 0.00 | 0.00 | 0.00 | 69 | 1014.5 |
| 20260504171912 | 79 | 174 | 2.6 | 10.4 | 0.00 | 0.00 | 0.00 | 71 | 1014.7 |
| 20260504171406 | 79 | 143 | 1.7 | 8.7 | 0.00 | 0.00 | 0.00 | 72 | 1014.9 |
| 20260504170900 | 78 | 198 | 1.7 | 8.7 | 0.00 | 0.00 | 0.00 | 72 | 1015.1 |
| 20260504170354 | 78 | 204 | 1.7 | 8.7 | 0.00 | 0.00 | 0.00 | 71 | 1015.1 |
| 20260504150826 | 75 | 178 | 2.6 | 10.4 | 0.00 | 0.00 | 0.00 | 75 | 1015.7 |
| 20260504150326 | 74 | 144 | 2.6 | 11.3 | 0.00 | 0.00 | 0.00 | 75 | 1015.7 |
| 20260504141322 | 72 | 128 | 2.6 | 7.8 | 0.00 | 0.00 | 0.00 | 76 | 1015.8 |
| 20260504140822 | 71 | 150 | 1.7 | 7.8 | 0.00 | 0.00 | 0.00 | 76 | 1015.7 |
| 20260504140319 | 71 | 113 | 1.7 | 6.1 | 0.00 | 0.00 | 0.00 | 79 | 1015.7 |
| 20260504130814 | 65 | 111 | 0.0 | 1.7 | 0.00 | 0.00 | 0.00 | 83 | 1015.8 |
| 20260504130545 | 65 | 112 | 0.0 | 1.7 | 0.00 | 0.00 | 0.00 | 83 | 1015.7 |
| 20260504120309 | 59 | 142 | 0.0 | 0.0 | 0.00 | 0.00 | 0.00 | 89 | 1015.5 |
| 20260504110714 | 59 | 141 | 0.0 | 0.0 | 0.00 | 0.00 | 0.00 | 88 | 1015.3 |
| 20260504110208 | 59 | 141 | 0.0 | 0.0 | 0.00 | 0.00 | 0.00 | 88 | 1015.3 |
| 20260504100139 | 60 | 141 | 0.0 | 0.0 | 0.00 | 0.00 | 0.00 | 86 | 1015.5 |
| 20260504090120 | 60 | 143 | 0.0 | 0.0 | 0.00 | 0.00 | 0.00 | 86 | 1016.1 |
| 20260504081525 | 60 | 143 | 0.0 | 1.7 | 0.00 | 0.00 | 0.00 | 85 | 1016.2 |
| 20260504081019 | 60 | 144 | 0.0 | 1.7 | 0.00 | 0.00 | 0.00 | 86 | 1016.2 |
| 20260504080514 | 60 | 144 | 0.0 | 0.9 | 0.00 | 0.00 | 0.00 | 86 | 1016.3 |
| 20260504070401 | 60 | 146 | 0.0 | 0.0 | 0.00 | 0.00 | 0.00 | 85 | 1017.5 |
| 20260504060249 | 62 | 145 | 0.0 | 0.9 | 0.00 | 0.00 | 0.00 | 84 | 1018.1 |
| 20260504050723 | 62 | 152 | 0.0 | 0.9 | 0.00 | 0.00 | 0.00 | 81 | 1018.3 |
| 20260504050222 | 62 | 152 | 0.0 | 0.0 | 0.00 | 0.00 | 0.00 | 81 | 1018.4 |
| 20260504045725 | 63 | 152 | 0.0 | 0.0 | 0.00 | 0.00 | 0.00 | 80 | 1018.5 |
| 20260504045720 | 63 | 152 | 0.0 | 0.0 | 0.00 | 0.00 | 0.00 | 81 | 1018.5 |
| 20260504044721 | 63 | 152 | 0.0 | 0.0 | 0.00 | 0.00 | 0.00 | 80 | 1018.4 |
| 20260504044220 | 63 | 152 | 0.0 | 0.0 | 0.00 | 0.00 | 0.00 | 79 | 1018.5 |
| 20260504043721 | 64 | 152 | 0.0 | 0.0 | 0.00 | 0.00 | 0.00 | 79 | 1018.4 |
| 20260504043218 | 64 | 0 | 0.0 | 0.0 | 0.00 | 0.00 | 0.00 | 77 | 1018.4 |
| 20260504042717 | 64 | 153 | 0.0 | 1.7 | 0.00 | 0.00 | 0.00 | 77 | 1018.5 |
| 20260504042217 | 64 | 153 | 0.0 | 1.7 | 0.00 | 0.00 | 0.00 | 77 | 1018.6 |
| 20260504041717 | 65 | 152 | 0.0 | 1.7 | 0.00 | 0.00 | 0.00 | 76 | 1018.5 |
| 20260504041450 | 65 | 0 | 0.0 | 0.9 | 0.00 | 0.00 | 0.00 | 75 | 1018.6 |
| 20260504040717 | 65 | 0 | 0.0 | 0.9 | 0.00 | 0.00 | 0.00 | 75 | 1018.6 |
| 20260504040448 | 65 | 0 | 0.0 | 0.9 | 0.00 | 0.00 | 0.00 | 74 | 1018.8 |
| 20260504035721 | 66 | 0 | 0.0 | 2.6 | 0.00 | 0.00 | 0.00 | 73 | 1018.6 |
| 20260504035717 | 66 | 0 | 0.0 | 1.7 | 0.00 | 0.00 | 0.00 | 73 | 1018.6 |
| 20260504034949 | 66 | 150 | 0.0 | 2.6 | 0.00 | 0.00 | 0.00 | 73 | 1018.6 |
| 20260504034217 | 66 | 0 | 0.0 | 2.6 | 0.00 | 0.00 | 0.00 | 72 | 1018.6 |
| 20260504033718 | 67 | 138 | 0.9 | 3.5 | 0.00 | 0.00 | 0.00 | 71 | 1018.5 |
| 20260504033217 | 67 | 143 | 0.9 | 3.5 | 0.00 | 0.00 | 0.00 | 71 | 1018.6 |
| 20260504032947 | 67 | 140 | 0.9 | 4.3 | 0.00 | 0.00 | 0.00 | 70 | 1018.7 |
| 20260504032216 | 67 | 144 | 0.9 | 7.0 | 0.00 | 0.00 | 0.00 | 70 | 1018.6 |
| 20260504031718 | 67 | 136 | 0.9 | 7.0 | 0.00 | 0.00 | 0.00 | 70 | 1018.5 |
| 20260504031218 | 67 | 144 | 0.0 | 4.3 | 0.00 | 0.00 | 0.00 | 69 | 1018.5 |
| 20260504030718 | 68 | 136 | 0.9 | 3.5 | 0.00 | 0.00 | 0.00 | 69 | 1018.3 |
| 20260504030450 | 68 | 135 | 0.9 | 4.3 | 0.00 | 0.00 | 0.00 | 69 | 1018.3 |
| 20260504025716 | 68 | 130 | 0.9 | 4.3 | 0.00 | 0.00 | 0.00 | 68 | 1018.3 |
| 20260504025218 | 68 | 144 | 0.9 | 4.3 | 0.00 | 0.00 | 0.00 | 68 | 1018.4 |
| 20260504024718 | 68 | 146 | 0.9 | 5.2 | 0.00 | 0.00 | 0.00 | 67 | 1018.3 |
| 20260504024217 | 68 | 136 | 0.9 | 5.2 | 0.00 | 0.00 | 0.00 | 67 | 1018.2 |
| 20260504023716 | 68 | 133 | 0.9 | 2.6 | 0.00 | 0.00 | 0.00 | 66 | 1018.2 |
| 20260504023217 | 68 | 138 | 0.9 | 5.2 | 0.00 | 0.00 | 0.00 | 67 | 1018.2 |
| 20260504022716 | 69 | 142 | 0.0 | 5.2 | 0.00 | 0.00 | 0.00 | 66 | 1018.1 |
| 20260504022217 | 69 | 135 | 0.9 | 3.5 | 0.00 | 0.00 | 0.00 | 66 | 1018.1 |
| 20260504021710 | 69 | 147 | 0.9 | 5.2 | 0.00 | 0.00 | 0.00 | 65 | 1018.0 |
| 20260504021205 | 69 | 141 | 0.9 | 4.3 | 0.00 | 0.00 | 0.00 | 65 | 1018.1 |
| 20260504020929 | 69 | 138 | 0.9 | 2.6 | 0.00 | 0.00 | 0.00 | 64 | 1017.9 |
| 20260504020153 | 70 | 137 | 0.9 | 1.7 | 0.00 | 0.00 | 0.00 | 64 | 1017.9 |
| 20260504015646 | 70 | 136 | 0.9 | 2.6 | 0.00 | 0.00 | 0.00 | 64 | 1017.9 |
| 20260504015140 | 70 | 146 | 0.9 | 4.3 | 0.00 | 0.00 | 0.00 | 63 | 1017.9 |
| 20260504014905 | 71 | 130 | 0.9 | 4.3 | 0.00 | 0.00 | 0.00 | 63 | 1017.9 |
| 20260504014129 | 71 | 144 | 0.9 | 5.2 | 0.00 | 0.00 | 0.00 | 61 | 1017.7 |
| 20260504013623 | 71 | 134 | 0.9 | 5.2 | 0.00 | 0.00 | 0.00 | 61 | 1017.7 |
| 20260504013121 | 71 | 155 | 1.7 | 7.0 | 0.00 | 0.00 | 0.00 | 61 | 1017.8 |
| 20260504012618 | 71 | 138 | 0.9 | 7.0 | 0.00 | 0.00 | 0.00 | 60 | 1017.8 |
| 20260504012118 | 71 | 143 | 0.9 | 6.1 | 0.00 | 0.00 | 0.00 | 61 | 1017.7 |
| 20260504011624 | 72 | 116 | 1.7 | 7.8 | 0.00 | 0.00 | 0.00 | 59 | 1017.6 |
| 20260504011619 | 72 | 148 | 1.7 | 7.0 | 0.00 | 0.00 | 0.00 | 60 | 1017.7 |
| 20260504010618 | 72 | 133 | 1.7 | 8.7 | 0.00 | 0.00 | 0.00 | 60 | 1017.7 |
| 20260504010117 | 72 | 142 | 0.9 | 8.7 | 0.00 | 0.00 | 0.00 | 60 | 1017.6 |
| 20260504005616 | 73 | 95 | 0.9 | 7.8 | 0.00 | 0.00 | 0.00 | 59 | 1017.7 |
| 20260504005115 | 73 | 126 | 0.9 | 7.0 | 0.00 | 0.00 | 0.00 | 59 | 1017.6 |
| 20260504004614 | 73 | 135 | 0.9 | 6.1 | 0.00 | 0.00 | 0.00 | 58 | 1017.6 |
| 20260504004114 | 74 | 145 | 0.9 | 6.1 | 0.00 | 0.00 | 0.00 | 58 | 1017.6 |
| 20260504003614 | 74 | 122 | 1.7 | 10.4 | 0.00 | 0.00 | 0.00 | 57 | 1017.5 |
| 20260504003112 | 74 | 144 | 2.6 | 10.4 | 0.00 | 0.00 | 0.00 | 56 | 1017.8 |
| 20260504002612 | 74 | 157 | 1.7 | 8.7 | 0.00 | 0.00 | 0.00 | 56 | 1017.8 |
| 20260504002112 | 74 | 121 | 1.7 | 7.8 | 0.00 | 0.00 | 0.00 | 56 | 1017.6 |
| 20260504001613 | 74 | 136 | 1.7 | 7.8 | 0.00 | 0.00 | 0.00 | 56 | 1017.6 |
| 20260504001112 | 75 | 148 | 1.7 | 6.1 | 0.00 | 0.00 | 0.00 | 56 | 1017.7 |
| 20260504000607 | 75 | 146 | 0.9 | 6.1 | 0.00 | 0.00 | 0.00 | 54 | 1017.7 |
| 20260504000101 | 76 | 150 | 0.0 | 4.3 | 0.00 | 0.00 | 0.00 | 51 | 1017.7 |
| 20260503235555 | 76 | 184 | 0.9 | 6.1 | 0.00 | 0.00 | 0.00 | 51 | 1017.5 |
| 20260503235049 | 76 | 180 | 0.9 | 6.1 | 0.00 | 0.00 | 0.00 | 50 | 1017.6 |
| 20260503234543 | 76 | 139 | 0.9 | 4.3 | 0.00 | 0.00 | 0.00 | 50 | 1017.6 |
| 20260503234037 | 77 | 200 | 0.9 | 3.5 | 0.00 | 0.00 | 0.00 | 51 | 1017.7 |
| 20260503233530 | 77 | 163 | 0.9 | 5.2 | 0.00 | 0.00 | 0.00 | 48 | 1017.7 |
| 20260503233255 | 77 | 100 | 0.9 | 5.2 | 0.00 | 0.00 | 0.00 | 46 | 1017.7 |
| 20260503232519 | 77 | 140 | 0.9 | 6.1 | 0.00 | 0.00 | 0.00 | 47 | 1017.8 |
| 20260503232243 | 77 | 152 | 0.9 | 6.1 | 0.00 | 0.00 | 0.00 | 46 | 1017.8 |
| 20260503231506 | 77 | 142 | 0.9 | 6.1 | 0.00 | 0.00 | 0.00 | 45 | 1017.9 |
| 20260503231231 | 78 | 166 | 0.9 | 7.8 | 0.00 | 0.00 | 0.00 | 46 | 1018.0 |
| 20260503230455 | 78 | 144 | 0.9 | 8.7 | 0.00 | 0.00 | 0.00 | 47 | 1018.0 |
| 20260503225949 | 78 | 113 | 0.9 | 8.7 | 0.00 | 0.00 | 0.00 | 48 | 1018.0 |
| 20260503225443 | 78 | 144 | 0.9 | 5.2 | 0.00 | 0.00 | 0.00 | 48 | 1017.9 |
| 20260503225209 | 78 | 144 | 0.9 | 5.2 | 0.00 | 0.00 | 0.00 | 49 | 1018.1 |
| 20260503224431 | 79 | 159 | 0.9 | 3.5 | 0.00 | 0.00 | 0.00 | 47 | 1018.1 |
| 20260503223924 | 79 | 123 | 0.9 | 3.5 | 0.00 | 0.00 | 0.00 | 47 | 1018.3 |
| 20260503223419 | 79 | 118 | 1.7 | 7.8 | 0.00 | 0.00 | 0.00 | 47 | 1018.4 |
| 20260503223145 | 79 | 153 | 0.9 | 7.8 | 0.00 | 0.00 | 0.00 | 46 | 1018.4 |
| 20260503222637 | 80 | 81 | 0.9 | 7.0 | 0.00 | 0.00 | 0.00 | 47 | 1018.3 |
| 20260503221901 | 80 | 153 | 0.9 | 4.3 | 0.00 | 0.00 | 0.00 | 50 | 1018.3 |
| 20260503221355 | 80 | 150 | 0.9 | 3.5 | 0.00 | 0.00 | 0.00 | 47 | 1018.5 |
| 20260503220849 | 80 | 163 | 0.9 | 3.5 | 0.00 | 0.00 | 0.00 | 52 | 1018.6 |
| 20260503220343 | 79 | 86 | 0.9 | 4.3 | 0.00 | 0.00 | 0.00 | 48 | 1018.7 |
| 20260503215836 | 79 | 206 | 1.7 | 8.7 | 0.00 | 0.00 | 0.00 | 46 | 1018.7 |
| 20260503215332 | 79 | 143 | 1.7 | 8.7 | 0.00 | 0.00 | 0.00 | 45 | 1018.7 |
| 20260503215327 | 80 | 177 | 0.9 | 4.3 | 0.00 | 0.00 | 0.00 | 48 | 1018.6 |
| 20260503214319 | 79 | 144 | 1.7 | 9.6 | 0.00 | 0.00 | 0.00 | 50 | 1018.7 |
| 20260503214044 | 79 | 155 | 1.7 | 9.6 | 0.00 | 0.00 | 0.00 | 49 | 1018.7 |
| 20260503213307 | 79 | 146 | 0.9 | 5.2 | 0.00 | 0.00 | 0.00 | 48 | 1018.7 |
| 20260503212801 | 80 | 151 | 0.9 | 7.0 | 0.00 | 0.00 | 0.00 | 49 | 1018.8 |
| 20260503212256 | 80 | 136 | 0.0 | 7.0 | 0.00 | 0.00 | 0.00 | 50 | 1019.0 |
| 20260503211749 | 80 | 121 | 0.9 | 6.1 | 0.00 | 0.00 | 0.00 | 45 | 1019.2 |
| 20260503211243 | 80 | 115 | 0.9 | 6.1 | 0.00 | 0.00 | 0.00 | 48 | 1019.2 |
| 20260503211009 | 80 | 143 | 1.7 | 7.8 | 0.00 | 0.00 | 0.00 | 50 | 1019.2 |
| 20260503210230 | 80 | 134 | 0.9 | 7.8 | 0.00 | 0.00 | 0.00 | 52 | 1019.3 |
| 20260503205725 | 80 | 155 | 0.9 | 4.3 | 0.00 | 0.00 | 0.00 | 51 | 1019.2 |
| 20260503205219 | 79 | 156 | 1.7 | 5.2 | 0.00 | 0.00 | 0.00 | 50 | 1019.4 |
| 20260503204713 | 79 | 36 | 1.7 | 6.1 | 0.00 | 0.00 | 0.00 | 52 | 1019.3 |
| 20260503204207 | 79 | 59 | 1.7 | 6.1 | 0.00 | 0.00 | 0.00 | 44 | 1019.4 |
| 20260503203701 | 80 | 139 | 0.9 | 6.1 | 0.00 | 0.00 | 0.00 | 50 | 1019.5 |
| 20260503203154 | 79 | 95 | 0.9 | 6.1 | 0.00 | 0.00 | 0.00 | 52 | 1019.6 |
| 20260503202649 | 79 | 128 | 0.9 | 5.2 | 0.00 | 0.00 | 0.00 | 49 | 1019.7 |
| 20260503202145 | 79 | 99 | 0.9 | 6.1 | 0.00 | 0.00 | 0.00 | 46 | 1019.8 |
| 20260503202140 | 79 | 76 | 0.9 | 7.0 | 0.00 | 0.00 | 0.00 | 46 | 1019.8 |
| 20260503201131 | 79 | 59 | 0.9 | 7.0 | 0.00 | 0.00 | 0.00 | 53 | 1019.9 |
| 20260503200625 | 80 | 106 | 0.9 | 4.3 | 0.00 | 0.00 | 0.00 | 49 | 1020.1 |
| 20260503200118 | 79 | 189 | 0.9 | 6.1 | 0.00 | 0.00 | 0.00 | 52 | 1020.2 |
| 20260503195613 | 79 | 96 | 0.9 | 6.1 | 0.00 | 0.00 | 0.00 | 47 | 1020.4 |
| 20260503195106 | 79 | 48 | 1.7 | 5.2 | 0.00 | 0.00 | 0.00 | 55 | 1020.4 |
| 20260503194601 | 79 | 28 | 2.6 | 7.0 | 0.00 | 0.00 | 0.00 | 51 | 1020.5 |
| 20260503194327 | 79 | 34 | 1.7 | 7.0 | 0.00 | 0.00 | 0.00 | 50 | 1020.5 |
| 20260503193548 | 79 | 115 | 0.9 | 7.0 | 0.00 | 0.00 | 0.00 | 49 | 1020.7 |
| 20260503193043 | 79 | 107 | 0.0 | 3.5 | 0.00 | 0.00 | 0.00 | 52 | 1020.7 |
| 20260503192537 | 78 | 38 | 0.9 | 4.3 | 0.00 | 0.00 | 0.00 | 50 | 1020.8 |
| 20260503192030 | 78 | 119 | 1.7 | 5.2 | 0.00 | 0.00 | 0.00 | 47 | 1020.9 |
| 20260503191525 | 78 | 161 | 1.7 | 6.1 | 0.00 | 0.00 | 0.00 | 52 | 1021.0 |
| 20260503191018 | 78 | 150 | 1.7 | 7.0 | 0.00 | 0.00 | 0.00 | 51 | 1021.1 |
| 20260503190513 | 78 | 97 | 1.7 | 7.0 | 0.00 | 0.00 | 0.00 | 50 | 1021.2 |
| 20260503190007 | 78 | 105 | 1.7 | 7.0 | 0.00 | 0.00 | 0.00 | 48 | 1021.2 |